Regional Weather Roundup
Issued by NWS

Home | Current Version | Previous Version | Graphics & Text | Print | Product List | Glossary On
Versions: 1 2 3 4 5 6 7 8 9 10 11 12 13 14 15 16 17 18 19 20 21 22 23 24 25 26 27 28 29 30 31 32 33 34 35 36 37 38 39 40 41 42 43 44 45 46 47
000
ASUS45 KSLC 012210
RWRUT

UTAH REGIONAL WEATHER ROUNDUP
NATIONAL WEATHER SERVICE SALT LAKE CITY UT
400 PM MDT TUE SEP 01 2015

UTZ001>011-023>025-012300-

NORTHERN UTAH

CITY           SKY/WX    TMP DP  RH WIND       PRES   REMARKS
BRIGHAM CITY   MOSUNNY   90  32  12 W8        29.93F
HILL AFB       MOSUNNY   87  48  26 NE6       29.97F
LOGAN          SUNNY     89  37  16 VRB6      29.94F
OGDEN          MOSUNNY   89  44  20 VRB3      29.94F
PROVO AIRPORT  MOSUNNY   88  46  23 CALM      29.97F
SALT LAKE CITY PTSUNNY   89  38  16 S18G28    29.90F
VERNAL         CLOUDY    82  46  28 W8        30.07F
WENDOVER       SUNNY     91  39  16 E15       29.89F
HEBER CITY     SUNNY     86  37  17 SW13G22   30.04F
WEST JORDAN    MOSUNNY   90  43  19 SE18G24   29.95F

$$

UTZ012>022-026-027-012300-

SOUTHERN/CENTRAL UTAH

CITY           SKY/WX    TMP DP  RH WIND       PRES   REMARKS
BLANDING       MOSUNNY   85  43  22 SW14G20   30.21F
BRYCE CANYON   MOSUNNY   78  33  19 SW16      30.26F
CEDAR CITY     SUNNY     85  37  18 SW18G26   30.09F
DELTA          SUNNY     91  32  12 SW12G23   29.98F
HANKSVILLE     PTSUNNY   90  45  20 N12       30.03F
MILFORD        SUNNY     90  34  13 SW24G35   30.03F
MOAB/CYNLANDS  PTSUNNY   87  48  25 VRB3      30.00F
PRICE          CLOUDY    75  46  35 W6        30.14F
ST GEORGE      CLEAR     97  46  17 SW16      29.91F HX  93
KANAB          SUNNY     84  52  32 S3        30.13F

$$

REGIONAL REPORTS     COLORADO/ARIZONA

CITY           SKY/WX    TMP DP  RH WIND       PRES   REMARKS
CRAIG, CO      PTSUNNY   80  44  27 S14       30.14S
GRAND JUNCTION MOSUNNY   85  44  23 VRB3      30.04F
RIFLE          MOSUNNY   80  48  32 VRB5      30.10F
MONTROSE       MOSUNNY   83  44  25 N9        30.10F
CORTEZ         SUNNY     87  40  19 S12       30.13F
PAGE, AZ       MOSUNNY   87  52  29 N10       30.03F
GRAND CANYON   PTSUNNY   79  46  31 VRB7      30.22F
KINGMAN        SUNNY     93  47  20 SW17G25   29.98F
FLAGSTAFF      PTSUNNY   71  49  45 SW13      30.26F

$$

REGIONAL REPORTS    NEVADA/IDAHO/WYOMING

CITY           SKY/WX    TMP DP  RH WIND       PRES   REMARKS
LAS VEGAS, NV  MOSUNNY   97  51  21 S10G20    29.81F HX  94
ELY            MOSUNNY   84  30  14 S16G24    30.08F
ELKO           SUNNY     90  24   9 S8        29.93F
POCATELLO, ID  SUNNY     88  31  13 W10G17    29.93F
BURLEY         MOSUNNY   86  35  16 VRB5      29.88F
EVANSTON, WY   PTSUNNY   73  37  27 S22       30.15F
ROCK SPRINGS   HVY RAIN  63  47  55 SW18G31   30.16R
KEMMERER       MOSUNNY   79  30  17 W20       30.15F

$$



USA.gov is the U.S. government's official web portal to all federal, state and local government web resources and services.